Time,TemperatureF,DewpointF,PressureIn,WindDirection,WindDirectionDegrees,WindSpeedMPH,WindSpeedGustMPH,Humidity,HourlyPrecipIn,Conditions,Clouds,dailyrainin,SoftwareType,DateUTC
2013-04-03 00:08:00,28.1,22.0,30.38,SSW,202,2.0,2.0,79,0.00,,,0.00,weatherlink.com 1.10,2013-04-03 05:08:00,
2013-04-03 00:23:00,27.7,22.0,30.38,SSW,202,0.0,1.0,80,0.00,,,0.00,weatherlink.com 1.10,2013-04-03 05:23:00,
2013-04-03 00:38:00,27.4,22.0,30.38,SSW,202,0.0,1.0,80,0.00,,,0.00,weatherlink.com 1.10,2013-04-03 05:38:00,
2013-04-03 00:53:00,27.3,22.0,30.38,SE,144,0.0,2.0,80,0.00,,,0.00,weatherlink.com 1.10,2013-04-03 05:53:00,
2013-04-03 01:08:00,27.4,22.0,30.38,South,190,0.0,2.0,79,0.00,,,0.00,weatherlink.com 1.10,2013-04-03 06:08:00,
2013-04-03 01:23:00,26.9,22.0,30.38,South,172,1.0,2.0,81,0.00,,,0.00,weatherlink.com 1.10,2013-04-03 06:23:00,
2013-04-03 01:38:00,27.0,22.0,30.39,South,172,0.0,0.0,81,0.00,,,0.00,weatherlink.com 1.10,2013-04-03 06:38:00,
2013-04-03 01:53:00,26.7,22.0,30.39,SSE,159,0.0,2.0,81,0.00,,,0.00,weatherlink.com 1.10,2013-04-03 06:53:00,
2013-04-03 02:08:00,27.8,22.0,30.39,SSE,157,0.0,2.0,79,0.00,,,0.00,weatherlink.com 1.10,2013-04-03 07:08:00,
2013-04-03 02:38:00,27.1,22.0,30.39,SSE,157,0.0,1.0,80,0.00,,,0.00,weatherlink.com 1.10,2013-04-03 07:38:00,
2013-04-03 02:53:00,26.9,22.0,30.39,SSE,152,0.0,2.0,81,0.00,,,0.00,weatherlink.com 1.10,2013-04-03 07:53:00,
2013-04-03 03:08:00,27.1,22.0,30.39,SSE,151,0.0,2.0,80,0.00,,,0.00,weatherlink.com 1.10,2013-04-03 08:08:00,
2013-04-03 03:23:00,27.4,22.0,30.39,SSE,151,0.0,2.0,80,0.00,,,0.00,weatherlink.com 1.10,2013-04-03 08:23:00,
2013-04-03 03:38:00,27.5,22.0,30.39,SE,132,0.0,3.0,80,0.00,,,0.00,weatherlink.com 1.10,2013-04-03 08:38:00,
2013-04-03 03:53:00,26.7,22.0,30.39,ESE,103,0.0,2.0,81,0.00,,,0.00,weatherlink.com 1.10,2013-04-03 08:53:00,
2013-04-03 04:08:00,26.9,22.0,30.39,SE,142,0.0,3.0,81,0.00,,,0.00,weatherlink.com 1.10,2013-04-03 09:08:00,
2013-04-03 04:25:00,27.0,22.0,30.40,South,187,1.0,2.0,80,0.00,,,0.00,weatherlink.com 1.10,2013-04-03 09:25:00,
2013-04-03 04:38:00,26.0,21.0,30.40,South,186,0.0,1.0,82,0.00,,,0.00,weatherlink.com 1.10,2013-04-03 09:38:00,
2013-04-03 04:53:00,25.2,21.0,30.40,South,180,0.0,2.0,83,0.00,,,0.00,weatherlink.com 1.10,2013-04-03 09:53:00,
2013-04-03 05:08:00,25.4,22.0,30.41,South,182,0.0,4.0,85,0.00,,,0.00,weatherlink.com 1.10,2013-04-03 10:08:00,
2013-04-03 05:23:00,25.3,21.0,30.40,South,179,0.0,1.0,83,0.00,,,0.00,weatherlink.com 1.10,2013-04-03 10:23:00,
2013-04-03 05:38:00,25.7,21.0,30.40,SSE,159,0.0,4.0,83,0.00,,,0.00,weatherlink.com 1.10,2013-04-03 10:38:00,
2013-04-03 05:55:00,26.5,22.0,30.40,South,176,4.0,4.0,82,0.00,,,0.00,weatherlink.com 1.10,2013-04-03 10:55:00,
2013-04-03 06:08:00,27.8,22.0,30.42,South,181,6.0,7.0,78,0.00,,,0.00,weatherlink.com 1.10,2013-04-03 11:08:00,
2013-04-03 06:24:00,28.0,22.0,30.42,SSE,164,3.0,9.0,79,0.00,,,0.00,weatherlink.com 1.10,2013-04-03 11:24:00,
2013-04-03 06:39:00,28.0,22.0,30.41,South,173,1.0,5.0,78,0.00,,,0.00,weatherlink.com 1.10,2013-04-03 11:39:00,
2013-04-03 06:54:00,27.4,22.0,30.41,SE,146,2.0,3.0,80,0.00,,,0.00,weatherlink.com 1.10,2013-04-03 11:54:00,
2013-04-03 07:09:00,27.3,22.0,30.41,SSE,155,0.0,2.0,81,0.00,,,0.00,weatherlink.com 1.10,2013-04-03 12:09:00,
2013-04-03 07:24:00,27.8,22.0,30.41,SSE,157,0.0,3.0,80,0.00,,,0.00,weatherlink.com 1.10,2013-04-03 12:24:00,
2013-04-03 07:39:00,28.5,22.0,30.41,South,170,2.0,5.0,77,0.00,,,0.00,weatherlink.com 1.10,2013-04-03 12:39:00,
2013-04-03 07:54:00,29.2,22.0,30.42,SE,142,2.0,7.0,73,0.00,,,0.00,weatherlink.com 1.10,2013-04-03 12:54:00,
2013-04-03 08:09:00,29.9,22.0,30.41,SSW,196,3.0,8.0,72,0.00,,,0.00,weatherlink.com 1.10,2013-04-03 13:09:00,
2013-04-03 08:24:00,30.3,23.0,30.42,South,173,3.0,9.0,73,0.00,,,0.00,weatherlink.com 1.10,2013-04-03 13:24:00,
2013-04-03 08:39:00,31.0,23.0,30.42,SE,141,4.0,8.0,73,0.00,,,0.00,weatherlink.com 1.10,2013-04-03 13:39:00,
2013-04-03 08:54:00,31.6,23.0,30.41,South,170,6.0,10.0,70,0.00,,,0.00,weatherlink.com 1.10,2013-04-03 13:54:00,
2013-04-03 09:09:00,32.6,23.0,30.40,South,189,6.0,11.0,67,0.00,,,0.00,weatherlink.com 1.10,2013-04-03 14:09:00,
2013-04-03 09:24:00,33.5,23.0,30.40,ESE,123,4.0,8.0,65,0.00,,,0.00,weatherlink.com 1.10,2013-04-03 14:24:00,
2013-04-03 09:39:00,34.1,23.0,30.40,SE,130,3.0,9.0,63,0.00,,,0.00,weatherlink.com 1.10,2013-04-03 14:39:00,
2013-04-03 09:54:00,34.3,22.0,30.40,South,190,5.0,13.0,62,0.00,,,0.00,weatherlink.com 1.10,2013-04-03 14:54:00,
2013-04-03 10:09:00,34.8,23.0,30.39,SSE,157,5.0,16.0,62,0.00,,,0.00,weatherlink.com 1.10,2013-04-03 15:09:00,
2013-04-03 10:24:00,35.6,23.0,30.39,South,173,11.0,15.0,60,0.00,,,0.00,weatherlink.com 1.10,2013-04-03 15:24:00,
2013-04-03 10:39:00,35.9,23.0,30.39,SE,136,9.0,15.0,60,0.00,,,0.00,weatherlink.com 1.10,2013-04-03 15:39:00,
2013-04-03 10:54:00,37.0,24.0,30.38,SSE,149,8.0,14.0,59,0.00,,,0.00,weatherlink.com 1.10,2013-04-03 15:54:00,
2013-04-03 11:09:00,37.9,25.0,30.38,ESE,109,11.0,12.0,59,0.00,,,0.00,weatherlink.com 1.10,2013-04-03 16:09:00,
2013-04-03 11:24:00,37.7,24.0,30.38,SSE,147,7.0,18.0,59,0.00,,,0.00,weatherlink.com 1.10,2013-04-03 16:24:00,
2013-04-03 12:24:00,39.9,26.0,30.37,SE,146,4.0,19.0,59,0.00,,,0.00,weatherlink.com 1.10,2013-04-03 17:24:00,
2013-04-03 12:39:00,40.5,27.0,30.36,South,181,7.0,20.0,58,0.00,,,0.00,weatherlink.com 1.10,2013-04-03 17:39:00,
2013-04-03 12:54:00,40.4,26.0,30.36,SSE,166,14.0,17.0,58,0.00,,,0.00,weatherlink.com 1.10,2013-04-03 17:54:00,
2013-04-03 13:09:00,41.7,28.0,30.36,ESE,104,7.0,17.0,58,0.00,,,0.00,weatherlink.com 1.10,2013-04-03 18:09:00,
2013-04-03 13:24:00,42.2,28.0,30.36,SSE,159,11.0,17.0,57,0.00,,,0.00,weatherlink.com 1.10,2013-04-03 18:24:00,
2013-04-03 13:55:00,43.0,29.0,30.34,SE,144,11.0,18.0,57,0.00,,,0.00,weatherlink.com 1.10,2013-04-03 18:55:00,
2013-04-03 14:10:00,43.6,28.0,30.34,SSW,202,8.0,16.0,55,0.00,,,0.00,weatherlink.com 1.10,2013-04-03 19:10:00,
2013-04-03 14:25:00,43.9,28.0,30.33,South,189,8.0,19.0,55,0.00,,,0.00,weatherlink.com 1.10,2013-04-03 19:25:00,
2013-04-03 14:40:00,44.3,29.0,30.32,SSW,211,7.0,17.0,56,0.00,,,0.00,weatherlink.com 1.10,2013-04-03 19:40:00,
2013-04-03 14:55:00,45.1,29.0,30.32,SSW,209,15.0,18.0,54,0.00,,,0.00,weatherlink.com 1.10,2013-04-03 19:55:00,
2013-04-03 15:25:00,45.6,30.0,30.30,South,184,6.0,16.0,55,0.00,,,0.00,weatherlink.com 1.10,2013-04-03 20:25:00,
2013-04-03 15:40:00,46.2,30.0,30.30,South,190,10.0,17.0,53,0.00,,,0.00,weatherlink.com 1.10,2013-04-03 20:40:00,
2013-04-03 15:55:00,46.5,30.0,30.29,South,182,7.0,17.0,53,0.00,,,0.00,weatherlink.com 1.10,2013-04-03 20:55:00,
2013-04-03 16:10:00,46.7,31.0,30.28,SSW,208,8.0,22.0,55,0.00,,,0.00,weatherlink.com 1.10,2013-04-03 21:10:00,
2013-04-03 16:25:00,46.7,31.0,30.27,South,184,8.0,21.0,54,0.00,,,0.00,weatherlink.com 1.10,2013-04-03 21:25:00,
2013-04-03 16:40:00,46.7,31.0,30.26,South,177,8.0,22.0,54,0.00,,,0.00,weatherlink.com 1.10,2013-04-03 21:40:00,
2013-04-03 16:55:00,47.2,31.0,30.26,South,181,9.0,20.0,53,0.00,,,0.00,weatherlink.com 1.10,2013-04-03 21:55:00,
2013-04-03 17:10:00,47.2,31.0,30.25,South,173,10.0,17.0,53,0.00,,,0.00,weatherlink.com 1.10,2013-04-03 22:10:00,
2013-04-03 17:25:00,47.5,31.0,30.25,SSE,166,8.0,23.0,53,0.00,,,0.00,weatherlink.com 1.10,2013-04-03 22:25:00,
2013-04-03 17:40:00,47.5,30.0,30.24,South,183,11.0,20.0,52,0.00,,,0.00,weatherlink.com 1.10,2013-04-03 22:40:00,
2013-04-03 17:55:00,47.7,31.0,30.23,SSW,193,8.0,17.0,52,0.00,,,0.00,weatherlink.com 1.10,2013-04-03 22:55:00,
2013-04-03 18:10:00,47.7,31.0,30.23,SE,134,6.0,17.0,53,0.00,,,0.00,weatherlink.com 1.10,2013-04-03 23:10:00,
2013-04-03 18:25:00,47.6,31.0,30.23,South,171,9.0,18.0,53,0.00,,,0.00,weatherlink.com 1.10,2013-04-03 23:25:00,
2013-04-03 18:40:00,47.5,31.0,30.23,South,187,7.0,17.0,53,0.00,,,0.00,weatherlink.com 1.10,2013-04-03 23:40:00,
2013-04-03 18:55:00,47.4,31.0,30.23,South,189,6.0,16.0,54,0.00,,,0.00,weatherlink.com 1.10,2013-04-03 23:55:00,
2013-04-03 19:10:00,47.2,31.0,30.23,South,182,5.0,13.0,54,0.00,,,0.00,weatherlink.com 1.10,2013-04-04 00:10:00,
2013-04-03 19:25:00,46.5,31.0,30.22,SSE,158,12.0,12.0,56,0.00,,,0.00,weatherlink.com 1.10,2013-04-04 00:25:00,
2013-04-03 19:40:00,45.7,31.0,30.22,SE,142,9.0,13.0,56,0.00,,,0.00,weatherlink.com 1.10,2013-04-04 00:40:00,
2013-04-03 19:55:00,44.8,31.0,30.22,SSW,208,3.0,8.0,58,0.00,,,0.00,weatherlink.com 1.10,2013-04-04 00:55:00,
2013-04-03 20:10:00,44.0,31.0,30.22,South,180,7.0,10.0,61,0.00,,,0.00,weatherlink.com 1.10,2013-04-04 01:10:00,
2013-04-03 20:25:00,43.3,31.0,30.22,South,169,6.0,10.0,62,0.00,,,0.00,weatherlink.com 1.10,2013-04-04 01:25:00,
2013-04-03 20:40:00,42.7,30.0,30.22,SSE,157,3.0,9.0,62,0.00,,,0.00,weatherlink.com 1.10,2013-04-04 01:40:00,
2013-04-03 20:55:00,42.2,30.0,30.23,South,187,3.0,8.0,63,0.00,,,0.00,weatherlink.com 1.10,2013-04-04 01:55:00,
2013-04-03 21:10:00,41.3,30.0,30.23,SSE,149,7.0,9.0,65,0.00,,,0.00,weatherlink.com 1.10,2013-04-04 02:10:00,
2013-04-03 21:25:00,40.6,31.0,30.23,South,190,4.0,9.0,68,0.00,,,0.00,weatherlink.com 1.10,2013-04-04 02:25:00,
2013-04-03 21:40:00,40.1,30.0,30.23,South,188,4.0,7.0,68,0.00,,,0.00,weatherlink.com 1.10,2013-04-04 02:40:00,
2013-04-03 21:55:00,40.2,30.0,30.23,SSW,202,4.0,8.0,66,0.00,,,0.00,weatherlink.com 1.10,2013-04-04 02:55:00,
2013-04-03 22:10:00,40.5,29.0,30.23,SSW,192,6.0,12.0,65,0.00,,,0.00,weatherlink.com 1.10,2013-04-04 03:10:00,
2013-04-03 22:25:00,40.3,29.0,30.22,SSW,206,7.0,12.0,64,0.00,,,0.00,weatherlink.com 1.10,2013-04-04 03:25:00,
2013-04-03 22:40:00,40.0,29.0,30.22,SSW,202,10.0,12.0,64,0.00,,,0.00,weatherlink.com 1.10,2013-04-04 03:40:00,
2013-04-03 22:55:00,39.8,28.0,30.21,SSW,197,7.0,13.0,63,0.00,,,0.00,weatherlink.com 1.10,2013-04-04 03:55:00,
2013-04-03 23:10:00,39.7,28.0,30.21,SSE,157,8.0,12.0,63,0.00,,,0.00,weatherlink.com 1.10,2013-04-04 04:10:00,
2013-04-03 23:25:00,39.5,28.0,30.20,SSE,159,8.0,14.0,63,0.00,,,0.00,weatherlink.com 1.10,2013-04-04 04:25:00,
2013-04-03 23:40:00,39.3,28.0,30.20,SSW,209,9.0,14.0,63,0.00,,,0.00,weatherlink.com 1.10,2013-04-04 04:40:00,
2013-04-03 23:55:00,39.1,28.0,30.20,South,173,11.0,15.0,64,0.00,,,0.00,weatherlink.com 1.10,2013-04-04 04:55:00,